Weather History for New Orleans Lakefront, LA

Change the Weather History Date:

Monday, January 13, 2014

  Actual Average Record
Temperature  
Mean Temperature 60 °F 53 °F  
Max Temperature 65 °F 62 °F 82 °F (1972)
Min Temperature 54 °F 44 °F 15 °F (1962)
Degree Days  
Heating Degree Days 5 12  
Month to date heating degree days 216 156  
Since 1 July heating degree days 749 637  
Cooling Degree Days 0 0  
Month to date cooling degree days 0 10  
Year to date cooling degree days 0 10  
Growing Degree Days 8 (Base 50)    
Moisture  
Dew Point 58 °F    
Average Humidity 84    
Maximum Humidity 100    
Minimum Humidity 67    
Precipitation  
Precipitation 0.91 in 0.17 in 2.73 in (1947)
Month to date precipitation 2.00 2.14  
Year to date precipitation 2.00 2.14  
Snow  
Snow 0.00 in - - ()
Month to date snowfall 0.0  
Since 1 July snowfall 0.0  
Snow Depth 0.00 in    
Sea Level Pressure  
Sea Level Pressure 29.95 in    
Wind  
Wind Speed 8 mph (South)    
Max Wind Speed 18 mph    
Max Gust Speed 26 mph    
Visibility 6 miles    
Events Fog , Rain , Thunderstorm    
T = Trace of Precipitation, MM = Missing Value Source: NWS Daily Summary

Daily Weather History Graph

Daily Weather History Graph

Search for Another Location

Airport:

Trip Planner

Search our weather history database for the weather conditions in past years. The results will help you decide how hot, cold, wet, or windy it might be!

Date:

Astronomy

Jan. 13, 2014 Rise Set
Actual Time 6:57 AM CST 5:20 PM CST
Civil Twilight 6:31 AM CST 5:46 PM CST
Nautical Twilight 6:01 AM CST 6:16 PM CST
Astronomical Twilight 5:32 AM CST 6:45 PM CST
Moon 3:34 PM CST (1/13) 4:47 AM CST (1/13)
Length of Visible Light 11h 15m
Length of Day
10h 23m
Waxing Gibbous, 95% of the Moon is Illuminated
Jan 13
Waxing Gibbous
Jan 15
Full
Jan 23
Last Quarter
Jan 30
New
Feb 6
First Quarter

Hourly Weather History & Observations

Time (CST) Temp. Dew Point Humidity Pressure Visibility Wind Dir Wind Speed Gust Speed Precip Events Conditions
12:53 AM 55.9 °F 48.9 °F 77% 30.04 in 10.0 mi SE 9.2 mph - N/A   Clear
1:53 AM 55.9 °F 51.1 °F 84% 30.02 in 10.0 mi SE 6.9 mph - N/A   Clear
2:53 AM 57.0 °F 53.1 °F 87% 30.01 in 10.0 mi SE 6.9 mph - N/A   Clear
3:53 AM 57.0 °F 53.1 °F 87% 30.04 in 10.0 mi SW 6.9 mph - N/A   Partly Cloudy
4:13 AM 57.0 °F 53.1 °F 87% 30.06 in 10.0 mi SSW 5.8 mph - N/A   Mostly Cloudy
4:49 AM 55.4 °F 53.6 °F 94% 30.05 in 10.0 mi North 3.5 mph - N/A   Mostly Cloudy
4:53 AM 55.9 °F 53.1 °F 90% 30.03 in 10.0 mi North 3.5 mph - N/A   Mostly Cloudy
5:53 AM 54.0 °F 52.0 °F 93% 29.99 in 10.0 mi ESE 15.0 mph - 0.02 in   Overcast
6:53 AM 55.9 °F 54.0 °F 93% 30.02 in 9.0 mi SSE 5.8 mph - 0.00 in Rain Light Rain
7:53 AM 60.1 °F 57.0 °F 90% 30.01 in 6.0 mi SE 12.7 mph - 0.10 in Rain Rain
8:53 AM 61.0 °F 59.0 °F 93% 29.99 in 3.0 mi SSE 11.5 mph - 0.15 in Rain Rain
9:04 AM 60.1 °F 59.0 °F 96% 30.02 in 2.5 mi SSE 10.4 mph - 0.05 in Rain Rain
9:16 AM 61.0 °F 59.0 °F 93% 30.03 in 3.0 mi SSE 8.1 mph - 0.10 in Rain Rain
9:23 AM 61.0 °F 59.0 °F 93% 30.03 in 2.5 mi SSE 8.1 mph - 0.13 in Rain Rain
9:40 AM 60.1 °F 59.0 °F 96% 30.02 in 3.0 mi SE 6.9 mph - 0.18 in Rain Rain
9:53 AM 61.0 °F 59.0 °F 93% 29.98 in 8.0 mi SSE 6.9 mph - 0.18 in   Overcast
10:24 AM 60.1 °F 59.0 °F 96% 30.00 in 0.8 mi West 5.8 mph - 0.04 in Rain Light Rain
10:31 AM 61.0 °F 59.0 °F 93% 30.00 in 2.5 mi South 5.8 mph - 0.06 in Rain Rain
10:53 AM 62.1 °F 61.0 °F 96% 29.98 in 3.0 mi SSE 12.7 mph - 0.11 in Rain Light Rain
11:07 AM 62.1 °F 61.0 °F 96% 30.00 in 2.5 mi South 10.4 mph - 0.04 in Rain Rain
11:17 AM 62.1 °F 60.1 °F 93% 29.98 in 3.0 mi South 10.4 mph - 0.06 in Rain Rain
11:38 AM 62.1 °F 60.1 °F 93% 29.94 in 3.0 mi SSE 9.2 mph - 0.14 in Rain , Thunderstorm Rain
11:53 AM 62.1 °F 60.1 °F 93% 29.92 in 3.0 mi SSE 10.4 mph - 0.18 in Rain , Thunderstorm Thunderstorms and Rain
12:07 PM 62.1 °F 60.1 °F 93% 29.92 in 4.0 mi SSE 9.2 mph - 0.03 in Rain Light Rain
12:53 PM 62.1 °F 61.0 °F 96% 29.86 in 3.0 mi SSE 6.9 mph - 0.09 in Rain Rain
1:33 PM 64.0 °F 61.0 °F 90% 29.87 in 10.0 mi South 12.7 mph - 0.01 in   Mostly Cloudy
1:42 PM 64.0 °F 61.0 °F 90% 29.88 in 10.0 mi South 12.7 mph - 0.01 in   Mostly Cloudy
1:53 PM 64.0 °F 62.1 °F 93% 29.86 in 10.0 mi South 12.7 mph - 0.01 in   Overcast
2:13 PM 64.0 °F 62.1 °F 93% 29.87 in 10.0 mi South 11.5 mph - N/A   Overcast
2:36 PM 64.0 °F 62.1 °F 93% 29.87 in 10.0 mi South 10.4 mph - N/A   Overcast
2:53 PM 64.0 °F 61.0 °F 90% 29.85 in 10.0 mi SSW 8.1 mph - N/A   Overcast
3:53 PM 64.0 °F 61.0 °F 90% 29.86 in 10.0 mi South 8.1 mph - N/A   Overcast
4:31 PM 63.0 °F 60.1 °F 90% 29.88 in 10.0 mi SSW 9.2 mph - N/A   Overcast
4:39 PM 63.0 °F 60.1 °F 90% 29.88 in 10.0 mi SSW 9.2 mph - N/A   Overcast
4:53 PM 63.0 °F 61.0 °F 93% 29.86 in 10.0 mi SSW 8.1 mph - N/A   Overcast
5:29 PM 62.1 °F 60.1 °F 93% 29.88 in 10.0 mi SSW 9.2 mph - N/A   Overcast
5:53 PM 63.0 °F 60.1 °F 90% 29.88 in 10.0 mi SSW 8.1 mph - N/A   Overcast
6:21 PM 64.0 °F 61.0 °F 90% 29.90 in 10.0 mi SSW 6.9 mph - N/A   Overcast
6:48 PM 62.6 °F 60.8 °F 94% 29.91 in 10.0 mi South 5.8 mph - N/A   Mostly Cloudy
6:53 PM 62.1 °F 60.1 °F 93% 29.89 in 10.0 mi South 4.6 mph - N/A   Mostly Cloudy
7:08 PM 62.1 °F 60.1 °F 93% 29.91 in 10.0 mi South 4.6 mph - N/A   Overcast
7:53 PM 62.1 °F 60.1 °F 93% 29.91 in 9.0 mi South 3.5 mph - N/A   Overcast
8:11 PM 60.1 °F 57.9 °F 93% 29.93 in 1.8 mi SSW 4.6 mph - N/A   Mostly Cloudy
8:22 PM 57.9 °F 57.0 °F 97% 29.93 in 0.5 mi SW 3.5 mph - N/A Fog Fog
8:30 PM 59.0 °F 57.9 °F 96% 29.93 in 0.2 mi SSW 4.6 mph - N/A Fog Fog
8:53 PM 57.9 °F 57.9 °F 100% 29.92 in 0.2 mi SW 5.8 mph - N/A Fog Fog
9:37 PM 55.9 °F 55.0 °F 97% 29.96 in 0.2 mi West 16.1 mph - N/A Fog Fog
9:53 PM 55.9 °F 55.0 °F 97% 29.95 in 0.2 mi West 13.8 mph - N/A Fog Fog
10:06 PM 54.0 °F 54.0 °F 100% 29.97 in 0.2 mi WNW 13.8 mph - N/A Fog Fog
10:14 PM 55.0 °F 54.0 °F 96% 29.97 in 1.5 mi WNW 17.3 mph - N/A   Overcast
10:16 PM 55.0 °F 54.0 °F 96% 29.98 in 4.0 mi WNW 18.4 mph - N/A   Overcast
10:53 PM 52.0 °F 48.9 °F 89% 29.97 in 10.0 mi NW 17.3 mph - N/A   Partly Cloudy
11:53 PM 53.1 °F 48.0 °F 83% 29.99 in 10.0 mi WNW 13.8 mph - N/A   Clear